sat.trackr.live / text

‹ back to catalog

STARLINK-2213

NORAD 47780 · 2021-017BL

PAYLOAD ACTIVE UNKNOWN

§ Identity

Operator
Country
US
Launch date
2021-03-04
Launch site
AFETR
Launch vehicle
Mass (kg)
RCS (m²)

Purposes: comms

External: N2YO · Heavens-Above · Gunter

§ Orbital elements

Epoch: 2026-09-19T22:30:45.186336Z

Period
94.01 min
Inclination
53.1613°
Eccentricity
0.0001229
Mean motion
15.31707081 rev/d
Perigee alt
469.9 km
Apogee alt
471.6 km
Semi-major
6,848.9 km
B*
5.5302e-5
RAAN
19.8340°
Arg perigee
90.5738°
Mean anomaly
269.5404°
Rev number
30,766

§ Raw data

STARLINK-22131 47780U 21017BL  26262.93802299  .00001352  00000+0  55302-4 0  99962 47780  53.1613  19.8340 0001229  90.5738 269.5404 15.31707081307663

JSON: /api/v1/satellites/47780 · /tle

For live sub-satellite position, see the globe view (requires WebGL).

§ Visibility from observer

Set your observer location to see the next 7 days of passes ≥ 10°. The values pass through the URL so the page stays shareable.

No JS? Fill the form by hand. The geolocation button needs JavaScript.